Fulton, NY

3:29 AM EST on November 18, 2017 (GMT -0500)
Oswego County

Weather History for KFZY - February, 2013

Change the Weather History Date:

Sunday, February 3, 2013

  Actual Average (KSYR) Record (KSYR)
Temperature  
Mean Temperature 26 °F -  
Max Temperature 44 °F 30 °F 54 °F (1991)
Min Temperature 9 °F 14 °F -14 °F (1961)
Degree Days  
Heating Degree Days 40    
Moisture  
Dew Point 8 °F    
Average Humidity 49    
Maximum Humidity 80    
Minimum Humidity 29    
Precipitation  
Precipitation 0.05 in - - ()
Sea Level Pressure  
Sea Level Pressure 29.84 in    
Wind  
Wind Speed 4 mph (SSW)    
Max Wind Speed 14 mph    
Max Gust Speed -    
Visibility 7 miles    
Events      
Averages and records for this station are not official NWS values.
T = Trace of Precipitation, MM = Missing Value Source: NWS Daily Summary

Daily Weather History Graph

Daily Weather History Graph

Search for Another Location

Airport or City:

Trip Planner

Search our weather history database for the weather conditions in past years. The results will help you decide how hot, cold, wet, or windy it might be!

Date:

Astronomy

Feb. 03, 2013 Rise Set
Actual Time 7:18 AM EST 5:20 PM EST
Civil Twilight 6:48 AM EST 5:50 PM EST
Nautical Twilight 6:14 AM EST 6:24 PM EST
Astronomical Twilight 5:41 AM EST 6:58 PM EST
Moon 12:44 AM EST (2/3) 10:55 AM EST (2/3)
Length of Visible Light 11h 01m
Length of Day
10h 01m
Waning Gibbous, 49% of the Moon is Illuminated
Feb 3
Waning Gibbous
Feb 10
New
Feb 17
First Quarter
Feb 25
Full
Mar 4
Last Quarter

Hourly Weather History & Observations

Time (EST) Temp. Windchill Dew Point Humidity Pressure Visibility Wind Dir Wind Speed Gust Speed Precip Events Conditions
12:54 AM 12.0 °F - 7.0 °F 80% 29.99 in 8.0 mi Calm Calm - N/A   Clear
1:54 AM 9.0 °F - 1.9 °F 73% 29.99 in 8.0 mi Calm Calm - N/A   Clear
2:54 AM 17.1 °F - 3.0 °F 54% 29.98 in 7.0 mi Calm Calm - N/A   Scattered Clouds
3:54 AM 17.1 °F 10.0 °F 3.0 °F 54% 29.96 in 9.0 mi ESE 4.6 mph - N/A   Partly Cloudy
4:54 AM 16.0 °F 10.4 °F 5.0 °F 62% 29.95 in 10.0 mi ESE 3.5 mph - N/A   Overcast
5:54 AM 16.0 °F 8.8 °F 3.0 °F 57% 29.94 in 10.0 mi ESE 4.6 mph - N/A   Partly Cloudy
6:54 AM 16.0 °F 10.4 °F 3.0 °F 57% 29.92 in 10.0 mi ESE 3.5 mph - N/A   Clear
7:54 AM 12.0 °F 5.9 °F 3.9 °F 70% 29.93 in 9.0 mi ESE 3.5 mph - N/A   Clear
8:54 AM 28.0 °F 24.2 °F 8.1 °F 43% 29.93 in 10.0 mi SE 3.5 mph - N/A   Clear
9:54 AM 30.9 °F - 12.0 °F 46% 29.89 in 10.0 mi Calm Calm - N/A   Clear
10:54 AM 37.9 °F 35.5 °F 10.9 °F 33% 29.90 in 10.0 mi SE 3.5 mph - N/A   Overcast
11:54 AM 39.9 °F 35.8 °F 10.9 °F 31% 29.87 in 10.0 mi SE 5.8 mph - N/A   Overcast
12:54 PM 42.1 °F 38.4 °F 12.0 °F 29% 29.84 in 10.0 mi ESE 5.8 mph - N/A   Scattered Clouds
1:54 PM 42.1 °F 40.2 °F 12.9 °F 31% 29.81 in 10.0 mi SE 3.5 mph - N/A   Scattered Clouds
2:54 PM 39.0 °F - 12.9 °F 34% 29.80 in 10.0 mi Calm Calm - N/A   Mostly Cloudy
3:54 PM 44.1 °F 41.5 °F 14.0 °F 30% 29.79 in 10.0 mi South 4.6 mph - N/A   Overcast
4:40 PM - - - N/A% 29.77 in 10.0 mi West 4.6 mph - N/A   Overcast
4:54 PM - - - N/A% 29.77 in 10.0 mi West 4.6 mph - N/A   Overcast
5:03 PM - - - N/A% 29.77 in 10.0 mi Calm Calm - N/A   Overcast
5:54 PM - - - N/A% 29.77 in 10.0 mi Calm Calm - N/A   Mostly Cloudy
6:54 PM - - - N/A% 29.78 in 10.0 mi WSW 6.9 mph - N/A   Overcast
7:54 PM - - - N/A% 29.79 in 4.0 mi West 5.8 mph - 0.00 in   Unknown
8:54 PM - - - N/A% 29.80 in 2.5 mi SW 4.6 mph - 0.00 in   Unknown
9:03 PM - - - N/A% 29.80 in 1.8 mi WSW 5.8 mph - 0.00 in   Unknown
9:19 PM - - - N/A% 29.80 in 1.0 mi WSW 5.8 mph - 0.01 in   Unknown
9:28 PM - - - N/A% 29.80 in 0.8 mi WSW 8.1 mph - 0.01 in   Unknown
9:37 PM - - - N/A% 29.80 in 0.8 mi WSW 8.1 mph - 0.02 in   Unknown
9:54 PM - - - N/A% 29.80 in 0.8 mi WSW 9.2 mph - 0.02 in   Unknown
10:21 PM - - - N/A% 29.80 in 0.5 mi WSW 10.4 mph - 0.02 in   Unknown
10:29 PM - - - N/A% 29.80 in 0.2 mi West 13.8 mph - 0.02 in   Unknown
10:42 PM - - - N/A% 29.80 in 0.5 mi West 10.4 mph - 0.03 in   Unknown
10:47 PM - - - N/A% 29.80 in 2.0 mi West 9.2 mph - 0.03 in   Unknown
10:49 PM - - - N/A% 29.80 in 4.0 mi WSW 6.9 mph - 0.03 in   Unknown
10:54 PM - - - N/A% 29.80 in 6.0 mi WSW 6.9 mph - 0.03 in   Unknown
11:54 PM - - - N/A% 29.80 in 9.0 mi WSW 11.5 mph - 0.00 in   Mostly Cloudy